When you browse on this site, cookies collect data to enhance your experience and personalize the content and advertising you see.
Visit our Privacy Policy to learn more. By continuing to use the site, you agree to this use of cookies and data.
  • In Netherlands
  • List of Countries
  • For 7 days
  • Water Temperature
  • Weather Map
  • Weather Widgets
  • user-avatar
    Login

    Hourly Weather Unty

    Today, 20 October, Sunday

    Time Temperature Precipitation Wind Pressure Humidity
    00:00 +12°C° 0 mm 1 mps 652 mmHg 71%
    01:00 +11°C° 0 mm 1 mps 652 mmHg 71%
    02:00 +11°C° 0 mm 1 mps 652 mmHg 71%
    03:00 +10°C° 0 mm 0 mps 652 mmHg 73%
    04:00 +10°C° 0 mm 0 mps 652 mmHg 73%
    05:00 +9°C° 0 mm 0 mps 653 mmHg 74%
    06:00 +9°C° 0 mm 0 mps 653 mmHg 74%
    07:00 +11°C° 0 mm 0 mps 653 mmHg 69%
    08:00 +14°C° 0 mm 1 mps 654 mmHg 63%
    09:00 +15°C° 0 mm 1 mps 654 mmHg 58%
    10:00 +16°C° 0 mm 1 mps 655 mmHg 55%
    11:00 +17°C° 0 mm 2 mps 655 mmHg 52%
    12:00 +18°C° 0 mm 2 mps 655 mmHg 49%
    13:00 +18°C° 0.1 mm 2 mps 655 mmHg 51%
    14:00 +17°C° 0.1 mm 2 mps 655 mmHg 52%
    15:00 +17°C° 0.1 mm 2 mps 654 mmHg 54%
    16:00 +16°C° 0 mm 2 mps 654 mmHg 62%
    17:00 +14°C° 0 mm 1 mps 654 mmHg 70%
    18:00 +12°C° 0 mm 1 mps 654 mmHg 78%
    19:00 +11°C° 0 mm 0 mps 654 mmHg 79%
    20:00 +10°C° 0 mm 0 mps 653 mmHg 80%
    21:00 +10°C° 0 mm 0 mps 653 mmHg 82%
    22:00 +10°C° 0 mm 0 mps 653 mmHg 81%
    23:00 +9°C° 0 mm 0 mps 653 mmHg 81%

    Tomorrow, 21 October, Monday

    Time Temperature Precipitation Wind Pressure Humidity
    00:00 +9°C° 0 mm 0 mps 653 mmHg 81%
    01:00 +10°C° 0 mm 1 mps 653 mmHg 81%
    02:00 +10°C° 0 mm 1 mps 653 mmHg 81%
    03:00 +10°C° 0 mm 1 mps 653 mmHg 80%
    04:00 +10°C° 0 mm 1 mps 653 mmHg 80%
    05:00 +9°C° 0 mm 1 mps 653 mmHg 80%
    06:00 +9°C° 0 mm 1 mps 653 mmHg 79%
    07:00 +11°C° 0 mm 1 mps 654 mmHg 73%
    08:00 +13°C° 0 mm 1 mps 654 mmHg 66%
    09:00 +14°C° 0 mm 1 mps 655 mmHg 59%
    10:00 +15°C° 0 mm 1 mps 655 mmHg 57%
    11:00 +16°C° 0 mm 2 mps 655 mmHg 55%
    12:00 +17°C° 0 mm 2 mps 655 mmHg 53%
    13:00 +17°C° 0 mm 2 mps 655 mmHg 56%
    14:00 +16°C° 0 mm 2 mps 655 mmHg 59%
    15:00 +16°C° 0 mm 2 mps 655 mmHg 62%
    16:00 +15°C° 0 mm 2 mps 654 mmHg 72%
    17:00 +13°C° 0 mm 1 mps 654 mmHg 82%
    18:00 +10°C° 0 mm 0 mps 653 mmHg 92%
    19:00 +10°C° 0 mm 0 mps 653 mmHg 91%
    20:00 +10°C° 0 mm 0 mps 653 mmHg 91%
    21:00 +9°C° 0 mm 0 mps 653 mmHg 91%
    22:00 +9°C° 0 mm 0 mps 653 mmHg 90%
    23:00 +10°C° 0 mm 1 mps 653 mmHg 89%

    Day after tomorrow, 22 October, Tuesday

    Time Temperature Precipitation Wind Pressure Humidity
    00:00 +10°C° 0 mm 1 mps 653 mmHg 89%
    01:00 +10°C° 0 mm 1 mps 653 mmHg 87%
    02:00 +9°C° 0 mm 1 mps 652 mmHg 84%
    03:00 +9°C° 0 mm 1 mps 652 mmHg 82%
    04:00 +9°C° 0 mm 1 mps 652 mmHg 80%
    05:00 +9°C° 0 mm 1 mps 652 mmHg 79%
    06:00 +9°C° 0 mm 1 mps 652 mmHg 77%
    07:00 +10°C° 0 mm 1 mps 653 mmHg 71%
    08:00 +12°C° 0 mm 1 mps 653 mmHg 65%
    09:00 +14°C° 0 mm 1 mps 654 mmHg 59%
    10:00 +15°C° 0 mm 1 mps 654 mmHg 58%
    11:00 +16°C° 0 mm 2 mps 654 mmHg 56%
    12:00 +16°C° 0 mm 2 mps 654 mmHg 55%
    13:00 +16°C° 0 mm 2 mps 654 mmHg 58%
    14:00 +16°C° 0 mm 2 mps 654 mmHg 61%
    15:00 +16°C° 0 mm 2 mps 653 mmHg 64%
    16:00 +14°C° 0 mm 2 mps 653 mmHg 74%
    17:00 +12°C° 0 mm 1 mps 653 mmHg 84%
    18:00 +10°C° 0 mm 0 mps 652 mmHg 93%
    19:00 +9°C° 0 mm 0 mps 652 mmHg 93%
    20:00 +9°C° 0 mm 0 mps 652 mmHg 92%
    21:00 +9°C° 0 mm 0 mps 652 mmHg 91%
    22:00 +9°C° 0 mm 0 mps 652 mmHg 90%
    23:00 +9°C° 0 mm 0 mps 652 mmHg 90%

    23 October, Wednesday

    Time Temperature Precipitation Wind Pressure Humidity
    00:00 +8°C° 0 mm 0 mps 652 mmHg 90%
    01:00 +8°C° 0 mm 0 mps 652 mmHg 90%
    02:00 +8°C° 0 mm 0 mps 651 mmHg 90%
    03:00 +8°C° 0 mm 0 mps 651 mmHg 91%
    04:00 +7°C° 0 mm 0 mps 651 mmHg 90%
    05:00 +7°C° 0 mm 0 mps 651 mmHg 89%
    06:00 +7°C° 0 mm 0 mps 651 mmHg 89%
    07:00 +9°C° 0 mm 0 mps 652 mmHg 83%
    08:00 +11°C° 0 mm 1 mps 653 mmHg 78%
    09:00 +12°C° 0 mm 1 mps 653 mmHg 72%
    10:00 +13°C° 0 mm 1 mps 653 mmHg 70%
    11:00 +14°C° 0 mm 2 mps 653 mmHg 67%
    12:00 +15°C° 0 mm 2 mps 653 mmHg 65%
    13:00 +14°C° 0 mm 2 mps 653 mmHg 68%
    14:00 +14°C° 0 mm 2 mps 653 mmHg 71%
    15:00 +14°C° 0 mm 2 mps 653 mmHg 74%
    16:00 +13°C° 0 mm 2 mps 652 mmHg 80%
    17:00 +11°C° 0 mm 1 mps 652 mmHg 87%
    18:00 +10°C° 0 mm 1 mps 652 mmHg 93%
    19:00 +9°C° 0 mm 0 mps 652 mmHg 93%
    20:00 +9°C° 0 mm 0 mps 652 mmHg 92%
    21:00 +9°C° 0 mm 0 mps 652 mmHg 92%
    22:00 +8°C° 0 mm 0 mps 652 mmHg 91%
    23:00 +8°C° 0 mm 0 mps 652 mmHg 90%

    24 October, Thursday

    Time Temperature Precipitation Wind Pressure Humidity
    00:00 +9°C° 0 mm 1 mps 652 mmHg 89%
    01:00 +8°C° 0 mm 1 mps 651 mmHg 87%
    02:00 +8°C° 0 mm 1 mps 651 mmHg 85%
    03:00 +8°C° 0 mm 1 mps 651 mmHg 83%
    04:00 +8°C° 0 mm 1 mps 651 mmHg 81%
    05:00 +8°C° 0 mm 1 mps 651 mmHg 78%
    06:00 +8°C° 0 mm 1 mps 651 mmHg 76%
    07:00 +10°C° 0 mm 1 mps 651 mmHg 68%
    08:00 +11°C° 0 mm 1 mps 652 mmHg 61%
    09:00 +13°C° 0 mm 1 mps 653 mmHg 54%
    10:00 +14°C° 0 mm 1 mps 653 mmHg 52%
    11:00 +15°C° 0 mm 1 mps 653 mmHg 50%
    12:00 +16°C° 0 mm 2 mps 653 mmHg 48%
    13:00 +16°C° 0 mm 2 mps 652 mmHg 50%
    14:00 +16°C° 0 mm 2 mps 652 mmHg 52%
    15:00 +16°C° 0 mm 2 mps 652 mmHg 54%
    16:00 +14°C° 0 mm 1 mps 652 mmHg 64%
    17:00 +12°C° 0 mm 1 mps 651 mmHg 73%
    18:00 +10°C° 0 mm 0 mps 650 mmHg 83%
    19:00 +11°C° 0 mm 1 mps 650 mmHg 81%
    20:00 +10°C° 0 mm 1 mps 650 mmHg 78%
    21:00 +10°C° 0 mm 1 mps 650 mmHg 75%
    22:00 +10°C° 0 mm 1 mps 650 mmHg 71%
    23:00 +10°C° 0 mm 1 mps 650 mmHg 67%

    25 October, Friday

    Time Temperature Precipitation Wind Pressure Humidity
    00:00 +10°C° 0 mm 1 mps 650 mmHg 63%
    01:00 +8°C° 0 mm 2 mps 650 mmHg 59%
    02:00 +8°C° 0 mm 2 mps 649 mmHg 56%
    03:00 +8°C° 0 mm 2 mps 649 mmHg 52%
    04:00 +8°C° 0 mm 2 mps 649 mmHg 50%
    05:00 +8°C° 0 mm 2 mps 649 mmHg 49%
    06:00 +9°C° 0 mm 1 mps 649 mmHg 47%
    07:00 +11°C° 0 mm 1 mps 650 mmHg 43%
    08:00 +13°C° 0 mm 1 mps 650 mmHg 39%
    09:00 +13°C° 0 mm 0 mps 651 mmHg 35%
    10:00 +15°C° 0 mm 1 mps 651 mmHg 35%
    11:00 +16°C° 0 mm 1 mps 651 mmHg 35%
    12:00 +17°C° 0 mm 2 mps 652 mmHg 35%
    13:00 +17°C° 0 mm 2 mps 651 mmHg 37%
    14:00 +17°C° 0 mm 2 mps 651 mmHg 40%
    15:00 +17°C° 0 mm 2 mps 651 mmHg 43%
    16:00 +15°C° 0 mm 1 mps 651 mmHg 54%
    17:00 +13°C° 0 mm 1 mps 650 mmHg 66%
    18:00 +11°C° 0 mm 1 mps 650 mmHg 77%
    19:00 +11°C° 0 mm 1 mps 650 mmHg 76%
    20:00 +11°C° 0 mm 1 mps 650 mmHg 76%
    21:00 +11°C° 0 mm 1 mps 650 mmHg 75%
    22:00 +10°C° 0 mm 1 mps 649 mmHg 75%
    23:00 +9°C° 0 mm 2 mps 649 mmHg 74%
    Show more